OAL893 MMMX-MMTJ

Flight info

Callsign OAL893
Flight time 3h 13m
Altitude 36000
Route ATURO UT133 AGU UQ104 AVRIL UJ3 TANRI
Aircraft A310/H-SDFGHIM1RTUWXY/LB1

Departure

Time 2026-04-26 17:07
Airport Mexico City Benito Juárez International Airport (MMMX)

Arrival

Time 2026-04-26 20:21
Airport General Abelardo L. Rodriguez International Airport (MMTJ)
Time Latitude Longitude Altitude Speed Heading
2026-04-26 16:56 19.44058 -99.07272 7512 ft 0 kts 329°
2026-04-26 17:00 19.44057 -99.07271 7512 ft 0 kts 328°
2026-04-26 17:01 19.44053 -99.07269 7514 ft 3 kts 328°
2026-04-26 17:01 19.44036 -99.07258 7512 ft 3 kts 328°
2026-04-26 17:01 19.44020 -99.07246 7513 ft 3 kts 328°
2026-04-26 17:01 19.44003 -99.07235 7511 ft 3 kts 316°
2026-04-26 17:02 19.43992 -99.07218 7510 ft 3 kts 276°
2026-04-26 17:02 19.43992 -99.07206 7509 ft 0 kts 253°
2026-04-26 17:03 19.43982 -99.07245 7510 ft 12 kts 253°
2026-04-26 17:03 19.43924 -99.07358 7514 ft 22 kts 238°
2026-04-26 17:03 19.43840 -99.07509 7511 ft 26 kts 240°
2026-04-26 17:03 19.43713 -99.07600 7503 ft 22 kts 195°
2026-04-26 17:04 19.43639 -99.07714 7498 ft 20 kts 239°
2026-04-26 17:04 19.43562 -99.07851 7489 ft 22 kts 239°
2026-04-26 17:04 19.43488 -99.07981 7488 ft 20 kts 240°
2026-04-26 17:04 19.43413 -99.08115 7488 ft 23 kts 238°
2026-04-26 17:05 19.43327 -99.08267 7495 ft 25 kts 240°
2026-04-26 17:05 19.43233 -99.08437 7495 ft 29 kts 239°
2026-04-26 17:05 19.43134 -99.08613 7492 ft 27 kts 239°
2026-04-26 17:05 19.43042 -99.08776 7494 ft 25 kts 239°
2026-04-26 17:06 19.42956 -99.08930 7497 ft 23 kts 239°
2026-04-26 17:06 19.42845 -99.09050 7489 ft 25 kts 207°
2026-04-26 17:06 19.42750 -99.09042 7485 ft 8 kts 63°
2026-04-26 17:06 19.42820 -99.08915 7484 ft 45 kts 57°
2026-04-26 17:07 19.43091 -99.08445 7482 ft 103 kts 59°
2026-04-26 17:07 19.43544 -99.07649 7484 ft 151 kts 59°
2026-04-26 17:07 19.44157 -99.06567 7529 ft 186 kts 59°
2026-04-26 17:07 19.44825 -99.05358 8002 ft 196 kts 59°
2026-04-26 17:08 19.45540 -99.04062 8546 ft 212 kts 59°
2026-04-26 17:08 19.46313 -99.02663 9022 ft 228 kts 58°
2026-04-26 17:08 19.47169 -99.01160 9253 ft 248 kts 58°
2026-04-26 17:08 19.48101 -98.99516 9412 ft 271 kts 58°
2026-04-26 17:09 19.49123 -98.97723 9644 ft 296 kts 58°
2026-04-26 17:09 19.49836 -98.96451 9878 ft 307 kts 59°
2026-04-26 17:09 19.51340 -98.93753 10301 ft 329 kts 59°
2026-04-26 17:09 19.52529 -98.91619 10603 ft 344 kts 59°
2026-04-26 17:10 19.53880 -98.89514 10899 ft 357 kts 50°
2026-04-26 17:10 19.55564 -98.87518 11204 ft 369 kts 46°
2026-04-26 17:10 19.57366 -98.85518 11557 ft 381 kts 46°
2026-04-26 17:10 19.59218 -98.83454 11949 ft 390 kts 46°
2026-04-26 17:11 19.61081 -98.81334 12415 ft 396 kts 47°
2026-04-26 17:11 19.62958 -98.79191 13003 ft 397 kts 47°
2026-04-26 17:11 19.64844 -98.77038 13613 ft 399 kts 47°
2026-04-26 17:11 19.66720 -98.74861 14184 ft 400 kts 47°
2026-04-26 17:12 19.70542 -98.70566 15265 ft 401 kts 38°
2026-04-26 17:12 19.72998 -98.69188 15764 ft 402 kts 15°
2026-04-26 17:13 19.78587 -98.69089 16784 ft 406 kts 356°
2026-04-26 17:13 19.81386 -98.69202 17277 ft 409 kts 359°
2026-04-26 17:13 19.87108 -98.68955 18225 ft 414 kts
2026-04-26 17:14 19.89986 -98.68734 18648 ft 416 kts
2026-04-26 17:14 19.95781 -98.68331 19516 ft 419 kts
2026-04-26 17:14 19.98641 -98.68785 19970 ft 418 kts 339°
2026-04-26 17:15 20.03250 -98.72494 20982 ft 420 kts 315°
2026-04-26 17:15 20.05387 -98.74631 21478 ft 421 kts 319°
2026-04-26 17:15 20.07661 -98.76606 21954 ft 423 kts 322°
2026-04-26 17:16 20.10043 -98.78474 22348 ft 428 kts 324°
2026-04-26 17:16 20.12481 -98.80311 22717 ft 432 kts 324°
2026-04-26 17:16 20.14945 -98.82181 23101 ft 436 kts 324°
2026-04-26 17:16 20.17410 -98.84085 23466 ft 440 kts 323°
2026-04-26 17:17 20.19880 -98.86038 23801 ft 444 kts 323°
2026-04-26 17:17 20.22346 -98.87964 24124 ft 447 kts 323°
2026-04-26 17:17 20.24797 -98.89992 24439 ft 450 kts 315°
2026-04-26 17:17 20.26663 -98.92672 24792 ft 452 kts 299°
2026-04-26 17:18 20.28083 -98.95673 25150 ft 455 kts 296°
2026-04-26 17:18 20.29508 -98.98699 25497 ft 458 kts 298°
2026-04-26 17:18 20.31065 -99.01654 25844 ft 456 kts 300°
2026-04-26 17:18 20.32705 -99.04530 26193 ft 454 kts 301°
2026-04-26 17:19 20.36045 -99.10231 26913 ft 451 kts 301°
2026-04-26 17:19 20.37676 -99.13066 27285 ft 449 kts 301°
2026-04-26 17:19 20.39300 -99.15905 27654 ft 447 kts 301°
2026-04-26 17:20 20.40914 -99.18724 28025 ft 446 kts 301°
2026-04-26 17:20 20.41446 -99.19650 28146 ft 445 kts 301°
2026-04-26 17:20 20.44162 -99.24363 28801 ft 446 kts 301°
2026-04-26 17:20 20.46038 -99.26954 29189 ft 450 kts 315°
2026-04-26 17:21 20.48466 -99.29072 29615 ft 452 kts 322°
2026-04-26 17:21 20.51029 -99.31034 29996 ft 453 kts 322°
2026-04-26 17:21 20.53545 -99.33063 30330 ft 454 kts 320°
2026-04-26 17:21 20.55991 -99.35200 30676 ft 454 kts 318°
2026-04-26 17:22 20.58393 -99.37398 31028 ft 455 kts 317°
2026-04-26 17:22 20.60792 -99.39614 31381 ft 456 kts 318°
2026-04-26 17:22 20.63206 -99.41815 31744 ft 456 kts 318°
2026-04-26 17:22 20.65615 -99.44000 32094 ft 456 kts 318°
2026-04-26 17:23 20.68042 -99.46191 32471 ft 456 kts 318°
2026-04-26 17:23 20.70470 -99.48381 32846 ft 456 kts 318°
2026-04-26 17:23 20.72890 -99.50563 33235 ft 456 kts 318°
2026-04-26 17:23 20.75315 -99.52753 33620 ft 456 kts 318°
2026-04-26 17:24 20.77706 -99.54910 33980 ft 455 kts 318°
2026-04-26 17:24 20.80130 -99.57085 34307 ft 454 kts 318°
2026-04-26 17:24 20.82578 -99.59288 34652 ft 452 kts 317°
2026-04-26 17:24 20.84924 -99.61437 34992 ft 451 kts 317°
2026-04-26 17:25 20.87322 -99.63595 35345 ft 449 kts 318°
2026-04-26 17:25 20.89702 -99.65754 35598 ft 451 kts 317°
2026-04-26 17:25 20.92080 -99.67927 35722 ft 447 kts 317°
2026-04-26 17:25 20.94463 -99.70072 35726 ft 445 kts 317°
2026-04-26 17:26 20.99154 -99.74351 35762 ft 443 kts 317°
2026-04-26 17:26 21.03842 -99.78616 35771 ft 442 kts 315°
2026-04-26 17:27 21.05752 -99.81146 35775 ft 435 kts 296°
2026-04-26 17:27 21.06685 -99.84191 35786 ft 434 kts 277°
2026-04-26 17:27 21.07109 -99.90685 35792 ft 438 kts 279°
2026-04-26 17:28 21.08585 -99.96999 35776 ft 437 kts 288°
2026-04-26 17:28 21.10441 -100.03198 35768 ft 437 kts 287°
2026-04-26 17:29 21.11587 -100.07323 35777 ft 437 kts 287°
2026-04-26 17:29 21.13830 -100.15703 35779 ft 437 kts 286°
2026-04-26 17:30 21.15537 -100.21947 35782 ft 437 kts 287°
2026-04-26 17:30 21.17216 -100.28151 35784 ft 437 kts 287°
2026-04-26 17:31 21.18917 -100.34394 35797 ft 437 kts 286°
2026-04-26 17:31 21.20606 -100.40650 35798 ft 437 kts 286°
2026-04-26 17:32 21.22297 -100.46893 35807 ft 436 kts 286°
2026-04-26 17:32 21.23988 -100.53145 35810 ft 436 kts 286°
2026-04-26 17:33 21.25678 -100.59383 35816 ft 436 kts 287°
2026-04-26 17:34 21.27939 -100.67677 35822 ft 435 kts 287°
2026-04-26 17:34 21.29612 -100.73923 35821 ft 435 kts 286°
2026-04-26 17:35 21.31287 -100.80168 35830 ft 435 kts 286°
2026-04-26 17:35 21.32965 -100.86409 35826 ft 435 kts 286°
2026-04-26 17:36 21.34622 -100.92626 35834 ft 435 kts 286°
2026-04-26 17:36 21.36282 -100.98861 35835 ft 435 kts 286°
2026-04-26 17:37 21.37942 -101.05106 35840 ft 435 kts 286°
2026-04-26 17:37 21.39592 -101.11342 35849 ft 435 kts 286°
2026-04-26 17:38 21.42079 -101.20700 35857 ft 435 kts 286°
2026-04-26 17:38 21.43718 -101.26896 35858 ft 432 kts 286°
2026-04-26 17:39 21.45371 -101.33083 35862 ft 431 kts 286°
2026-04-26 17:39 21.47033 -101.39287 35866 ft 432 kts 285°
2026-04-26 17:40 21.48426 -101.44477 35876 ft 432 kts 286°
2026-04-26 17:40 21.50319 -101.51707 35877 ft 433 kts 285°
2026-04-26 17:41 21.51952 -101.57936 35878 ft 433 kts 285°
2026-04-26 17:41 21.53586 -101.64156 35876 ft 433 kts 285°
2026-04-26 17:42 21.55221 -101.70382 35879 ft 433 kts 285°
2026-04-26 17:42 21.56832 -101.76616 35886 ft 433 kts 285°
2026-04-26 17:43 21.58435 -101.82828 35881 ft 434 kts 285°
2026-04-26 17:43 21.60043 -101.89067 35872 ft 434 kts 285°
2026-04-26 17:44 21.61664 -101.95312 35891 ft 433 kts 285°
2026-04-26 17:44 21.63285 -102.01545 35976 ft 433 kts 285°
2026-04-26 17:45 21.64918 -102.07776 36065 ft 433 kts 285°
2026-04-26 17:45 21.66559 -102.14018 36155 ft 433 kts 285°
2026-04-26 17:46 21.68171 -102.20269 36235 ft 433 kts 285°
2026-04-26 17:46 21.69784 -102.26506 36269 ft 433 kts 284°
2026-04-26 17:47 21.71140 -102.31686 36265 ft 433 kts 288°
2026-04-26 17:47 21.73187 -102.35376 36291 ft 437 kts 313°
2026-04-26 17:47 21.75550 -102.37400 36312 ft 444 kts 321°
2026-04-26 17:48 21.80453 -102.41477 36211 ft 441 kts 314°
2026-04-26 17:48 21.84761 -102.46106 36119 ft 440 kts 310°
2026-04-26 17:49 21.89030 -102.50838 36037 ft 440 kts 311°
2026-04-26 17:49 21.93338 -102.55509 35954 ft 440 kts 311°
2026-04-26 17:50 21.97662 -102.60155 35901 ft 439 kts 311°
2026-04-26 17:50 22.01981 -102.64816 35900 ft 439 kts 311°
2026-04-26 17:51 22.06298 -102.69464 35911 ft 439 kts 311°
2026-04-26 17:51 22.10629 -102.74110 35914 ft 439 kts 311°
2026-04-26 17:52 22.14920 -102.78781 35910 ft 439 kts 311°
2026-04-26 17:52 22.19200 -102.83415 35914 ft 438 kts 310°
2026-04-26 17:53 22.23494 -102.88069 35911 ft 437 kts 310°
2026-04-26 17:54 22.29916 -102.95059 35916 ft 436 kts 310°
2026-04-26 17:54 22.34199 -102.99719 35909 ft 437 kts 310°
2026-04-26 17:55 22.38473 -103.04392 35921 ft 437 kts 311°
2026-04-26 17:55 22.42753 -103.09037 35922 ft 436 kts 310°
2026-04-26 17:56 22.47026 -103.13698 35924 ft 436 kts 310°
2026-04-26 17:57 22.55571 -103.22988 35920 ft 436 kts 310°
2026-04-26 17:57 22.59850 -103.27639 35927 ft 434 kts 310°
2026-04-26 17:58 22.68312 -103.36921 35934 ft 434 kts 310°
2026-04-26 17:59 22.74676 -103.43908 35936 ft 434 kts 310°
2026-04-26 17:59 22.78920 -103.48573 35935 ft 434 kts 310°
2026-04-26 18:00 22.83144 -103.53239 35939 ft 434 kts 310°
2026-04-26 18:00 22.87385 -103.57902 35935 ft 434 kts 310°
2026-04-26 18:01 22.91592 -103.62535 35933 ft 433 kts 310°
2026-04-26 18:01 22.95822 -103.67199 35938 ft 433 kts 310°
2026-04-26 18:02 22.99362 -103.71099 35949 ft 432 kts 310°
2026-04-26 18:02 23.04274 -103.76498 35945 ft 432 kts 310°
2026-04-26 18:03 23.08496 -103.81139 35943 ft 432 kts 310°
2026-04-26 18:03 23.12700 -103.85796 35950 ft 431 kts 309°
2026-04-26 18:04 23.16866 -103.90491 35956 ft 431 kts 309°
2026-04-26 18:05 23.23170 -103.97454 35959 ft 430 kts 309°
2026-04-26 18:05 23.27327 -104.02077 35961 ft 432 kts 309°
2026-04-26 18:06 23.31530 -104.06748 35941 ft 431 kts 309°
2026-04-26 18:06 23.35720 -104.11428 35931 ft 431 kts 309°
2026-04-26 18:07 23.39921 -104.16082 35939 ft 431 kts 309°
2026-04-26 18:07 23.44111 -104.20754 35933 ft 431 kts 309°
2026-04-26 18:08 23.48271 -104.25403 35939 ft 430 kts 309°
2026-04-26 18:08 23.52447 -104.30059 35937 ft 430 kts 309°
2026-04-26 18:09 23.56637 -104.34717 35941 ft 430 kts 309°
2026-04-26 18:09 23.60838 -104.39373 35932 ft 430 kts 309°
2026-04-26 18:10 23.65007 -104.44053 35925 ft 430 kts 309°
2026-04-26 18:10 23.69171 -104.48729 35931 ft 430 kts 309°
2026-04-26 18:11 23.73347 -104.53417 35924 ft 430 kts 308°
2026-04-26 18:11 23.77516 -104.58093 35933 ft 430 kts 308°
2026-04-26 18:12 23.81703 -104.62785 35976 ft 430 kts 308°
2026-04-26 18:12 23.85836 -104.67439 36003 ft 428 kts 308°
2026-04-26 18:13 23.89985 -104.72108 36016 ft 428 kts 308°
2026-04-26 18:13 23.94133 -104.76771 36021 ft 428 kts 308°
2026-04-26 18:14 23.98299 -104.81413 36015 ft 427 kts 308°
2026-04-26 18:14 24.02420 -104.86082 35992 ft 427 kts 308°
2026-04-26 18:15 24.06561 -104.90756 35948 ft 427 kts 307°
2026-04-26 18:15 24.10692 -104.95427 35943 ft 427 kts 308°
2026-04-26 18:16 24.14796 -105.00079 35956 ft 427 kts 308°
2026-04-26 18:16 24.20980 -105.07101 35947 ft 427 kts 307°
2026-04-26 18:17 24.25103 -105.11778 35956 ft 427 kts 308°
2026-04-26 18:17 24.29228 -105.16468 35955 ft 426 kts 307°
2026-04-26 18:18 24.33344 -105.21155 35955 ft 426 kts 307°
2026-04-26 18:18 24.37431 -105.25798 35960 ft 426 kts 307°
2026-04-26 18:19 24.41557 -105.30470 35960 ft 427 kts 307°
2026-04-26 18:19 24.45696 -105.35144 35960 ft 426 kts 307°
2026-04-26 18:20 24.49791 -105.39852 35961 ft 426 kts 307°
2026-04-26 18:20 24.52530 -105.42998 35949 ft 426 kts 307°
2026-04-26 18:21 24.58008 -105.49244 35974 ft 426 kts 307°
2026-04-26 18:21 24.62104 -105.53937 35966 ft 425 kts 307°
2026-04-26 18:22 24.66193 -105.58645 35970 ft 427 kts 307°
2026-04-26 18:22 24.70310 -105.63341 35969 ft 426 kts 307°
2026-04-26 18:23 24.73715 -105.67256 35976 ft 426 kts 307°
2026-04-26 18:23 24.77810 -105.71966 35985 ft 426 kts 306°
2026-04-26 18:24 24.81936 -105.76700 35985 ft 429 kts 307°
2026-04-26 18:24 24.86051 -105.81410 35974 ft 425 kts 306°
2026-04-26 18:25 24.90111 -105.86102 35987 ft 426 kts 306°
2026-04-26 18:25 24.94201 -105.90826 36002 ft 426 kts 306°
2026-04-26 18:26 24.98305 -105.95557 35995 ft 426 kts 306°
2026-04-26 18:26 25.02387 -106.00292 36004 ft 427 kts 307°
2026-04-26 18:27 25.06481 -106.05040 36002 ft 426 kts 306°
2026-04-26 18:27 25.10528 -106.09805 35985 ft 426 kts 306°
2026-04-26 18:28 25.14586 -106.14568 35978 ft 426 kts 306°
2026-04-26 18:28 25.18689 -106.19315 35984 ft 427 kts 306°
2026-04-26 18:29 25.22768 -106.24083 35991 ft 426 kts 306°
2026-04-26 18:29 25.26852 -106.28837 35983 ft 427 kts 306°
2026-04-26 18:30 25.30934 -106.33604 35996 ft 427 kts 306°
2026-04-26 18:30 25.34987 -106.38357 35985 ft 427 kts 306°
2026-04-26 18:31 25.39068 -106.43133 35993 ft 428 kts 306°
2026-04-26 18:31 25.43194 -106.47941 35997 ft 428 kts 306°
2026-04-26 18:32 25.47275 -106.52704 35974 ft 430 kts 306°
2026-04-26 18:32 25.51395 -106.57500 36005 ft 429 kts 306°
2026-04-26 18:33 25.55493 -106.62294 35990 ft 428 kts 305°
2026-04-26 18:33 25.59580 -106.67110 35975 ft 427 kts 306°
2026-04-26 18:34 25.63657 -106.71918 36026 ft 429 kts 306°
2026-04-26 18:34 25.67741 -106.76723 35973 ft 427 kts 306°
2026-04-26 18:35 25.71783 -106.81502 36000 ft 428 kts 306°
2026-04-26 18:35 25.75878 -106.86317 36007 ft 428 kts 305°
2026-04-26 18:36 25.79964 -106.91140 35997 ft 429 kts 305°
2026-04-26 18:36 25.84044 -106.95954 35987 ft 428 kts 305°
2026-04-26 18:37 25.88105 -107.00774 36000 ft 427 kts 305°
2026-04-26 18:37 25.92151 -107.05580 35994 ft 428 kts 305°
2026-04-26 18:38 25.96212 -107.10421 35959 ft 427 kts 305°
2026-04-26 18:38 26.00289 -107.15264 35989 ft 429 kts 305°
2026-04-26 18:39 26.04389 -107.20112 35983 ft 429 kts 305°
2026-04-26 18:39 26.08454 -107.24924 35970 ft 430 kts 305°
2026-04-26 18:40 26.12545 -107.29777 35972 ft 430 kts 305°
2026-04-26 18:40 26.16634 -107.34658 35947 ft 430 kts 304°
2026-04-26 18:41 26.20716 -107.39532 35969 ft 429 kts 304°
2026-04-26 18:41 26.24800 -107.44392 35962 ft 430 kts 304°
2026-04-26 18:42 26.28870 -107.49306 35966 ft 431 kts 304°
2026-04-26 18:42 26.32957 -107.54199 35959 ft 431 kts 304°
2026-04-26 18:43 26.37043 -107.59100 35957 ft 432 kts 304°
2026-04-26 18:43 26.41145 -107.64027 35964 ft 433 kts 305°
2026-04-26 18:44 26.45228 -107.68958 35970 ft 433 kts 305°
2026-04-26 18:44 26.49315 -107.73885 35975 ft 432 kts 304°
2026-04-26 18:45 26.53391 -107.78786 35971 ft 433 kts 304°
2026-04-26 18:45 26.57503 -107.83755 35964 ft 433 kts 305°
2026-04-26 18:46 26.61564 -107.88679 35959 ft 433 kts 304°
2026-04-26 18:46 26.65684 -107.93634 35924 ft 435 kts 305°
2026-04-26 18:47 26.69777 -107.98614 35941 ft 435 kts 304°
2026-04-26 18:47 26.73868 -108.03591 35946 ft 434 kts 304°
2026-04-26 18:48 26.77953 -108.08559 35949 ft 434 kts 304°
2026-04-26 18:48 26.82041 -108.13523 35946 ft 433 kts 304°
2026-04-26 18:49 26.86113 -108.18500 35937 ft 433 kts 304°
2026-04-26 18:49 26.90177 -108.23449 35933 ft 435 kts 305°
2026-04-26 18:50 26.94260 -108.28450 35893 ft 434 kts 304°
2026-04-26 18:50 26.98358 -108.33451 35937 ft 434 kts 304°
2026-04-26 18:51 27.02416 -108.38463 35946 ft 434 kts 304°
2026-04-26 18:51 27.06515 -108.43443 35919 ft 435 kts 305°
2026-04-26 18:52 27.10602 -108.48444 35943 ft 433 kts 304°
2026-04-26 18:52 27.14681 -108.53449 35951 ft 434 kts 304°
2026-04-26 18:53 27.18724 -108.58459 35907 ft 432 kts 304°
2026-04-26 18:53 27.22778 -108.63416 35921 ft 434 kts 304°
2026-04-26 18:54 27.26836 -108.68433 35934 ft 435 kts 304°
2026-04-26 18:54 27.30908 -108.73457 35934 ft 435 kts 304°
2026-04-26 18:55 27.34997 -108.78492 35944 ft 434 kts 304°
2026-04-26 18:55 27.39058 -108.83514 35936 ft 434 kts 304°
2026-04-26 18:56 27.43110 -108.88542 35932 ft 434 kts 304°
2026-04-26 18:56 27.47182 -108.93581 35928 ft 433 kts 304°
2026-04-26 18:57 27.50546 -108.97757 35922 ft 432 kts 304°
2026-04-26 18:57 27.55252 -109.03599 35924 ft 434 kts 304°
2026-04-26 18:58 27.59310 -109.08613 35929 ft 433 kts 304°
2026-04-26 18:58 27.63366 -109.13623 35933 ft 433 kts 304°
2026-04-26 18:59 27.67412 -109.18657 35929 ft 432 kts 303°
2026-04-26 18:59 27.71447 -109.23690 35923 ft 431 kts 303°
2026-04-26 19:00 27.75470 -109.28714 35926 ft 431 kts 303°
2026-04-26 19:00 27.79495 -109.33745 35921 ft 431 kts 303°
2026-04-26 19:01 27.83496 -109.38779 35918 ft 431 kts 303°
2026-04-26 19:01 27.87513 -109.43807 35905 ft 430 kts 303°
2026-04-26 19:02 27.91517 -109.48843 35909 ft 430 kts 303°
2026-04-26 19:02 27.94838 -109.53018 35917 ft 430 kts 303°
2026-04-26 19:03 27.99495 -109.58869 35916 ft 429 kts 303°
2026-04-26 19:03 28.03507 -109.63887 35916 ft 429 kts 303°
2026-04-26 19:04 28.07522 -109.68899 35914 ft 430 kts 303°
2026-04-26 19:04 28.11511 -109.73944 35921 ft 429 kts 303°
2026-04-26 19:05 28.17480 -109.81480 35916 ft 428 kts 303°
2026-04-26 19:06 28.21442 -109.86517 35917 ft 428 kts 303°
2026-04-26 19:06 28.25421 -109.91551 35913 ft 428 kts 302°
2026-04-26 19:07 28.29384 -109.96586 35914 ft 428 kts 302°
2026-04-26 19:07 28.33350 -110.01635 35916 ft 428 kts 302°
2026-04-26 19:08 28.37276 -110.06643 35909 ft 428 kts 302°
2026-04-26 19:08 28.41247 -110.11679 35918 ft 427 kts 302°
2026-04-26 19:09 28.45210 -110.16715 35915 ft 428 kts 302°
2026-04-26 19:09 28.49178 -110.21747 35916 ft 428 kts 302°
2026-04-26 19:10 28.53134 -110.26788 35918 ft 427 kts 302°
2026-04-26 19:10 28.57087 -110.31843 35915 ft 427 kts 302°
2026-04-26 19:11 28.60353 -110.36049 35895 ft 428 kts 302°
2026-04-26 19:11 28.64305 -110.41123 35908 ft 427 kts 302°
2026-04-26 19:12 28.68887 -110.47002 35922 ft 426 kts 302°
2026-04-26 19:12 28.72179 -110.51245 35922 ft 426 kts 302°
2026-04-26 19:13 28.76077 -110.56283 35932 ft 426 kts 302°
2026-04-26 19:13 28.80031 -110.61371 35933 ft 426 kts 302°
2026-04-26 19:14 28.83920 -110.66411 35936 ft 426 kts 302°
2026-04-26 19:14 28.87846 -110.71463 35920 ft 425 kts 302°
2026-04-26 19:15 28.91767 -110.76526 35932 ft 425 kts 302°
2026-04-26 19:15 28.95690 -110.81586 35954 ft 425 kts 302°
2026-04-26 19:16 28.99608 -110.86629 35961 ft 425 kts 302°
2026-04-26 19:16 29.03501 -110.91697 35972 ft 423 kts 301°
2026-04-26 19:17 29.07385 -110.96752 35973 ft 423 kts 301°
2026-04-26 19:17 29.11211 -111.01806 35978 ft 421 kts 300°
2026-04-26 19:18 29.15035 -111.06908 35980 ft 422 kts 301°
2026-04-26 19:18 29.18922 -111.11951 35974 ft 422 kts 301°
2026-04-26 19:19 29.22789 -111.17015 35971 ft 422 kts 301°
2026-04-26 19:19 29.26652 -111.22080 35957 ft 421 kts 301°
2026-04-26 19:20 29.30529 -111.27144 35952 ft 421 kts 301°
2026-04-26 19:20 29.34351 -111.32166 35943 ft 421 kts 301°
2026-04-26 19:21 29.38204 -111.37228 35940 ft 421 kts 301°
2026-04-26 19:21 29.42061 -111.42284 35939 ft 421 kts 301°
2026-04-26 19:22 29.45922 -111.47335 35947 ft 420 kts 301°
2026-04-26 19:22 29.49777 -111.52373 35947 ft 420 kts 301°
2026-04-26 19:23 29.53583 -111.57403 35938 ft 419 kts 301°
2026-04-26 19:23 29.57416 -111.62453 35948 ft 419 kts 300°
2026-04-26 19:24 29.61242 -111.67515 35947 ft 419 kts 301°
2026-04-26 19:24 29.66961 -111.75104 35947 ft 418 kts 300°
2026-04-26 19:25 29.70128 -111.79303 35947 ft 418 kts 300°
2026-04-26 19:25 29.74571 -111.85210 35939 ft 417 kts 300°
2026-04-26 19:26 29.78367 -111.90260 35939 ft 417 kts 300°
2026-04-26 19:26 29.82160 -111.95326 35940 ft 417 kts 300°
2026-04-26 19:27 29.85954 -112.00378 35946 ft 417 kts 300°
2026-04-26 19:27 29.89724 -112.05407 35942 ft 417 kts 300°
2026-04-26 19:28 29.93519 -112.10468 35943 ft 417 kts 300°
2026-04-26 19:28 29.97313 -112.15518 35944 ft 417 kts 300°
2026-04-26 19:29 30.01119 -112.20572 35941 ft 417 kts 300°
2026-04-26 19:29 30.04879 -112.25640 35947 ft 416 kts 300°
2026-04-26 19:30 30.08651 -112.30710 35946 ft 415 kts 300°
2026-04-26 19:30 30.11785 -112.34916 35945 ft 415 kts 300°
2026-04-26 19:31 30.16148 -112.40801 35950 ft 414 kts 299°
2026-04-26 19:31 30.19899 -112.45859 35958 ft 414 kts 300°
2026-04-26 19:32 30.23651 -112.50925 35947 ft 414 kts 300°
2026-04-26 19:32 30.27378 -112.55989 35937 ft 413 kts 299°
2026-04-26 19:33 30.31124 -112.61054 35954 ft 413 kts 299°
2026-04-26 19:33 30.34851 -112.66121 35952 ft 414 kts 300°
2026-04-26 19:34 30.38594 -112.71189 35954 ft 413 kts 299°
2026-04-26 19:34 30.42302 -112.76233 35955 ft 413 kts 299°
2026-04-26 19:35 30.46055 -112.81333 35956 ft 413 kts 299°
2026-04-26 19:35 30.49789 -112.86396 35959 ft 413 kts 299°
2026-04-26 19:36 30.52898 -112.90610 35966 ft 413 kts 300°
2026-04-26 19:36 30.57231 -112.96513 35958 ft 413 kts 299°
2026-04-26 19:37 30.60958 -113.01603 35958 ft 413 kts 299°
2026-04-26 19:37 30.64671 -113.06701 35964 ft 413 kts 299°
2026-04-26 19:38 30.68379 -113.11803 35967 ft 413 kts 299°
2026-04-26 19:38 30.72065 -113.16871 35961 ft 413 kts 299°
2026-04-26 19:39 30.75769 -113.21964 35958 ft 412 kts 299°
2026-04-26 19:39 30.79472 -113.27060 35967 ft 412 kts 299°
2026-04-26 19:40 30.83178 -113.32167 35971 ft 412 kts 299°
2026-04-26 19:40 30.86868 -113.37273 35976 ft 413 kts 299°
2026-04-26 19:41 30.90569 -113.42398 35971 ft 412 kts 298°
2026-04-26 19:41 30.93636 -113.46637 35969 ft 412 kts 299°
2026-04-26 19:42 30.97953 -113.52630 35969 ft 412 kts 298°
2026-04-26 19:42 31.01634 -113.57752 35966 ft 412 kts 298°
2026-04-26 19:43 31.05318 -113.62876 35968 ft 412 kts 298°
2026-04-26 19:43 31.08981 -113.67967 35972 ft 413 kts 299°
2026-04-26 19:44 31.12678 -113.73100 35966 ft 413 kts 299°
2026-04-26 19:44 31.16373 -113.78223 35970 ft 413 kts 299°
2026-04-26 19:45 31.20078 -113.83353 35965 ft 413 kts 299°
2026-04-26 19:45 31.23751 -113.88511 35965 ft 412 kts 298°
2026-04-26 19:46 31.27419 -113.93651 35965 ft 412 kts 298°
2026-04-26 19:46 31.31087 -113.98793 35965 ft 411 kts 298°
2026-04-26 19:47 31.34135 -114.03066 35954 ft 412 kts 298°
2026-04-26 19:47 31.38397 -114.09064 35960 ft 412 kts 298°
2026-04-26 19:48 31.42052 -114.14227 35962 ft 412 kts 298°
2026-04-26 19:48 31.45700 -114.19382 35956 ft 411 kts 298°
2026-04-26 19:49 31.49359 -114.24542 35955 ft 411 kts 298°
2026-04-26 19:49 31.53003 -114.29703 35959 ft 411 kts 298°
2026-04-26 19:50 31.56633 -114.34836 35956 ft 411 kts 298°
2026-04-26 19:50 31.60276 -114.40003 35939 ft 412 kts 298°
2026-04-26 19:51 31.63941 -114.45195 35953 ft 412 kts 298°
2026-04-26 19:51 31.67608 -114.50376 35964 ft 413 kts 298°
2026-04-26 19:52 31.71264 -114.55531 35953 ft 413 kts 298°
2026-04-26 19:52 31.74904 -114.60739 35958 ft 413 kts 298°
2026-04-26 19:53 31.78557 -114.65958 35957 ft 413 kts 297°
2026-04-26 19:53 31.82205 -114.71172 35963 ft 412 kts 297°
2026-04-26 19:54 31.85852 -114.76388 35956 ft 412 kts 297°
2026-04-26 19:54 31.87535 -114.79077 35950 ft 396 kts 287°
2026-04-26 19:54 31.88473 -114.82023 35845 ft 381 kts 277°
2026-04-26 19:55 31.89098 -114.85044 35478 ft 379 kts 276°
2026-04-26 19:55 31.89793 -114.88024 35108 ft 379 kts 279°
2026-04-26 19:55 31.90636 -114.90925 34741 ft 379 kts 281°
2026-04-26 19:55 31.91585 -114.93855 34376 ft 378 kts 282°
2026-04-26 19:56 31.92531 -114.96693 34003 ft 376 kts 282°
2026-04-26 19:56 31.93491 -114.99549 33594 ft 374 kts 282°
2026-04-26 19:56 31.94429 -115.02390 33171 ft 370 kts 282°
2026-04-26 19:56 31.95337 -115.05217 32750 ft 367 kts 281°
2026-04-26 19:57 31.96231 -115.08016 32337 ft 365 kts 281°
2026-04-26 19:57 31.97123 -115.10804 31932 ft 362 kts 281°
2026-04-26 19:57 31.98009 -115.13573 31532 ft 360 kts 281°
2026-04-26 19:57 31.98891 -115.16324 31138 ft 357 kts 281°
2026-04-26 19:58 31.99769 -115.19056 30759 ft 355 kts 281°
2026-04-26 19:58 32.00643 -115.21769 30375 ft 353 kts 281°
2026-04-26 19:58 32.01508 -115.24456 29985 ft 350 kts 281°
2026-04-26 19:58 32.02354 -115.27099 29528 ft 348 kts 281°
2026-04-26 19:59 32.03207 -115.29759 29085 ft 346 kts 281°
2026-04-26 19:59 32.04055 -115.32395 28664 ft 344 kts 281°
2026-04-26 19:59 32.04898 -115.35027 28259 ft 342 kts 281°
2026-04-26 19:59 32.05736 -115.37644 27840 ft 340 kts 281°
2026-04-26 20:00 32.06566 -115.40238 27439 ft 338 kts 281°
2026-04-26 20:00 32.07391 -115.42829 27023 ft 336 kts 281°
2026-04-26 20:00 32.08208 -115.45408 26621 ft 335 kts 281°
2026-04-26 20:00 32.08744 -115.47107 26358 ft 334 kts 281°
2026-04-26 20:01 32.09547 -115.49670 25968 ft 332 kts 281°
2026-04-26 20:01 32.10343 -115.52225 25574 ft 331 kts 281°
2026-04-26 20:01 32.11146 -115.54767 25188 ft 330 kts 282°
2026-04-26 20:01 32.11948 -115.57291 24817 ft 329 kts 282°
2026-04-26 20:02 32.12744 -115.59819 24448 ft 328 kts 282°
2026-04-26 20:02 32.13543 -115.62347 24082 ft 327 kts 282°
2026-04-26 20:02 32.14333 -115.64857 23723 ft 326 kts 282°
2026-04-26 20:02 32.14848 -115.66519 23468 ft 325 kts 282°
2026-04-26 20:03 32.15845 -115.69846 22886 ft 318 kts 282°
2026-04-26 20:03 32.16583 -115.72285 22461 ft 312 kts 282°
2026-04-26 20:03 32.17320 -115.74663 22051 ft 306 kts 282°
2026-04-26 20:03 32.18048 -115.77002 21639 ft 300 kts 283°
2026-04-26 20:04 32.18759 -115.79299 21227 ft 295 kts 282°
2026-04-26 20:04 32.19442 -115.81523 20785 ft 289 kts 282°
2026-04-26 20:04 32.20124 -115.83728 20367 ft 283 kts 283°
2026-04-26 20:04 32.20798 -115.85893 19978 ft 278 kts 283°
2026-04-26 20:05 32.21441 -115.88035 19662 ft 277 kts 283°
2026-04-26 20:05 32.22072 -115.90172 19294 ft 274 kts 283°
2026-04-26 20:05 32.22715 -115.92285 18922 ft 273 kts 283°
2026-04-26 20:05 32.23369 -115.94391 18558 ft 273 kts 283°
2026-04-26 20:06 32.24017 -115.96498 18176 ft 272 kts 284°
2026-04-26 20:06 32.24652 -115.98598 17753 ft 272 kts 284°
2026-04-26 20:06 32.25278 -116.00703 17323 ft 271 kts 284°
2026-04-26 20:06 32.25894 -116.02804 16897 ft 269 kts 284°
2026-04-26 20:07 32.26510 -116.04854 16509 ft 268 kts 284°
2026-04-26 20:07 32.27147 -116.06953 16101 ft 267 kts 285°
2026-04-26 20:07 32.27757 -116.08987 15727 ft 265 kts 285°
2026-04-26 20:07 32.28359 -116.11032 15335 ft 263 kts 285°
2026-04-26 20:08 32.28964 -116.13072 14942 ft 262 kts 285°
2026-04-26 20:08 32.29576 -116.15091 14578 ft 261 kts 285°
2026-04-26 20:08 32.30180 -116.17107 14193 ft 259 kts 286°
2026-04-26 20:08 32.30771 -116.19117 13831 ft 258 kts 286°
2026-04-26 20:09 32.31351 -116.21116 13408 ft 256 kts 286°
2026-04-26 20:09 32.31942 -116.23101 13004 ft 255 kts 287°
2026-04-26 20:09 32.32528 -116.25080 12600 ft 254 kts 287°
2026-04-26 20:09 32.33104 -116.27052 12223 ft 253 kts 287°
2026-04-26 20:10 32.33688 -116.29015 11880 ft 252 kts 288°
2026-04-26 20:10 32.34271 -116.30963 11525 ft 251 kts 288°
2026-04-26 20:10 32.34848 -116.32911 11192 ft 250 kts 288°
2026-04-26 20:10 32.35418 -116.34851 10851 ft 249 kts 288°
2026-04-26 20:11 32.35990 -116.36784 10516 ft 248 kts 288°
2026-04-26 20:11 32.36571 -116.38701 10177 ft 247 kts 289°
2026-04-26 20:11 32.37147 -116.40610 9851 ft 246 kts 289°
2026-04-26 20:12 32.38287 -116.44402 9106 ft 244 kts 289°
2026-04-26 20:12 32.38853 -116.46261 8809 ft 244 kts 289°
2026-04-26 20:12 32.39433 -116.48146 8506 ft 244 kts 289°
2026-04-26 20:12 32.40021 -116.50029 8202 ft 244 kts 289°
2026-04-26 20:13 32.40606 -116.51905 7901 ft 243 kts 288°
2026-04-26 20:13 32.41171 -116.53794 7599 ft 243 kts 288°
2026-04-26 20:13 32.41746 -116.55674 7337 ft 243 kts 288°
2026-04-26 20:13 32.42317 -116.57553 7132 ft 243 kts 288°
2026-04-26 20:14 32.42865 -116.59440 6918 ft 242 kts 286°
2026-04-26 20:14 32.43370 -116.61342 6680 ft 242 kts 285°
2026-04-26 20:14 32.43876 -116.63242 6431 ft 242 kts 285°
2026-04-26 20:14 32.44383 -116.65147 6180 ft 242 kts 285°
2026-04-26 20:15 32.44866 -116.66989 5943 ft 241 kts 285°
2026-04-26 20:15 32.45362 -116.68885 5686 ft 241 kts 285°
2026-04-26 20:15 32.45848 -116.70772 5415 ft 239 kts 285°
2026-04-26 20:15 32.46326 -116.72642 5169 ft 234 kts 285°
2026-04-26 20:16 32.46787 -116.74434 4938 ft 219 kts 285°
2026-04-26 20:16 32.47210 -116.76089 4670 ft 201 kts 285°
2026-04-26 20:16 32.47597 -116.77602 4414 ft 183 kts 285°
2026-04-26 20:16 32.47954 -116.78991 4141 ft 168 kts 286°
2026-04-26 20:17 32.48352 -116.80209 3884 ft 153 kts 294°
2026-04-26 20:17 32.48830 -116.81283 3621 ft 144 kts 296°
2026-04-26 20:17 32.49297 -116.82309 3348 ft 140 kts 296°
2026-04-26 20:17 32.49607 -116.82992 3143 ft 139 kts 296°
2026-04-26 20:18 32.50206 -116.84308 2817 ft 136 kts 295°
2026-04-26 20:18 32.50653 -116.85289 2565 ft 134 kts 296°
2026-04-26 20:18 32.51097 -116.86258 2308 ft 134 kts 296°
2026-04-26 20:18 32.51563 -116.87235 1931 ft 140 kts 298°
2026-04-26 20:19 32.52059 -116.88234 1631 ft 138 kts 297°
2026-04-26 20:19 32.52543 -116.89184 1400 ft 131 kts 298°
2026-04-26 20:19 32.53021 -116.90085 1166 ft 127 kts 293°
2026-04-26 20:19 32.53311 -116.91042 963 ft 122 kts 281°
2026-04-26 20:20 32.53455 -116.92019 863 ft 121 kts 274°
2026-04-26 20:20 32.53578 -116.93029 756 ft 126 kts 278°
2026-04-26 20:20 32.53723 -116.94061 650 ft 127 kts 278°
2026-04-26 20:20 32.53862 -116.95113 543 ft 131 kts 277°
2026-04-26 20:21 32.53992 -116.96194 473 ft 130 kts 278°
2026-04-26 20:21 32.54120 -116.97143 471 ft 104 kts 278°
2026-04-26 20:21 32.54185 -116.97564 468 ft 18 kts 297°
2026-04-26 20:21 32.54249 -116.97531 472 ft 12 kts 58°
2026-04-26 20:22 32.54288 -116.97453 470 ft 10 kts 51°
2026-04-26 20:22 32.54347 -116.97416 470 ft 9 kts 21°
2026-04-26 20:22 32.54394 -116.97360 475 ft 12 kts 37°
2026-04-26 20:22 32.54444 -116.97270 473 ft 11 kts 96°
2026-04-26 20:23 32.54482 -116.97226 471 ft 9 kts 15°
2026-04-26 20:23 32.54508 -116.97221 472 ft 0 kts